User: anonymous   Login
Location: Unspecified
(0.0000°N, 0.0000°E)
Time: 01:31:11
(UTC+00:00)
Language:

ADEOS II - Orbit

View from above orbital plane
View from above orbital plane
View from above satellite
View from above satellite

Ground track
Ground track

The orbit data is extracted from the following two-line orbital elements,

1 27597U 02056A   17117.92811164 +.00000040 +00000-0 +33441-4 0  9995
2 27597 098.3649 089.6367 0002147 100.2261 259.9163 14.27281676748251
Epoch (UTC): 27 April 2017 22:16:28
Eccentricity: 0.0002147
inclination: 98.3649°
perigee height: 799 km
apogee height: 802 km
right ascension of ascending node: 89.6367°
argument of perigee: 100.2261°
revolutions per day: 14.27281676
mean anomaly at epoch: 259.9163°
orbit number at epoch: 74825

The dashed part of the orbit path shows where the satellite is in the earth's shadow,  

DLR